COSMOS 83

Satellite information

Favourite Embed

Satellite Type and Status

PAYLOADIN ORBIT

Key statistics

Satellite COSMOS 83 at a glance.

Uptime

21971

Days in orbit

Revolutions

≈ 12.4

Per day

Orbit

LEO

Low Earth Orbit

Inclination

56.1

Latest

Satellite identification and parameters

Extended collection of information and parameters for COSMOS 83.

Object identification

Identified? True

Debris? False

Object name: COSMOS 83

International designator: 1965-070D

Object number (NORAD): 1573

Object ID (CCSDS): 1573

Country: COMMONWEALTH OF INDEPENDENT STATES (CIS)

Current information (Y/N): Y

RCS size: MEDIUM

Orbital parameters

Period: 116.032 minutes

Inclination: 56.0535 deg

SMA: 7880.325 km

Apoapsis: 1556.39 km

Periapsis: 1447.989 km

RAAN: 239.4752 deg

Eccentricy: 0.00687797

Argument of periapsis: 127.4312 deg

Mean anomaly: 233.2875 deg

Mean motion: 12.41042298 rev/day

Mean motion (dot): -0.00000066 rev/day2

B* drag term: 0.00019704988 1/REarth

Two-line elements (TLE)

Creation date: Oct. 28, 2025, 7:11 p.m.

Reference frame: TEME

Reference center: EARTH

Epoch: Oct. 28, 2025, 3:49 a.m. UTC

TLE line 0: 0 COSMOS 83

TLE line 1: 1 01573U 65070D 25301.15930312 -.00000066 00000-0 19705-3 0 9997

TLE line 2: 2 01573 56.0535 239.4752 0068780 127.4312 233.2875 12.41042298726405

Live tracking on map

Real-time ground track for satellite COSMOS 83.

In-orbit conjunctions

There are no conjunctions computed for COSMOS 83, at the moment. Check back to stay up to date, as we update our databases every day.

Go to all conjunctions

Associated space launch

The Strela-1 satellites were prototype store-dump communications satellites for tactical communication.

COSMOS 83 was lifted into orbit during the mission ‘Kosmos 65S3 | Strela-1 20 to 24’, on board a Kosmos 65S3 space rocket.

The launch took place on Sept. 3, 1965, 2 p.m. from 41/15.

For more information about the launch, click the button.

Launch to space Kosmos 65S3 | Strela-1 20 to 24
Kosmos 65S3 | Strela-1 20 to 24

Agency: N/A

Status: Launch Successful

Launch date: Sept. 3, 1965, 2 p.m. UTC

Rocket: Kosmos 65S3

Launch pad: 41/15

Location: Baikonur Cosmodrome, Republic of Kazakhstan

...

Latest news about this satellite

There are no fresh news available about this satellite. Check back as we update our databases every day.


Newsletter sign-up

Weekly statistics, charts and insights to help you stay on top of the space industry.